Location: McLaughlin
(0.0000°N, 0.0000°E)
Time: 21:29:39
(UTC+00:00)

Hubble Space Telescope - Pass Details

Date: 25 June 2019
Orbit: 536 x 540 km, 28.5° (Epoch: 21 October)

Event Time Altitude Azimuth Distance (km) Brightness Sun altitude
Exits shadow 04:17:54 27° 342° (NNW) 1,044 2.2 -23.9°
Maximum altitude 04:19:32 39° 30° (NNE) 802 2.0 -23.5°
Drops below altitude 10° 04:23:23 10° 100° (E) 1,777 4.1 -22.6°
Sets 04:25:45 0° 108° (ESE) 2,668 5.0 -22.1°
